EW5655 Weather Reports


time (UTC)temp
C
wind
direction
speed
KPH
gust
KPH
rain 1hr
cm
rain 24hr
cm
rain mn
cm
humidity
%
barometer
mb
20260509145055 20 215 6.4 11.3 0.00 0.00 0.00 28 1015.8
20260509144553 19 213 3.2 8.0 0.00 0.00 0.00 28 1015.8
20260509144052 18 200 1.6 8.0 0.00 0.00 0.00 29 1015.8
20260509143550 18 200 1.6 8.0 0.00 0.00 0.00 29 1015.8
20260509143050 18 286 3.2 8.0 0.00 0.00 0.00 29 1015.8
20260509142548 18 294 1.6 8.0 0.00 0.00 0.00 30 1015.7
20260509142047 18 269 4.8 8.0 0.00 0.00 0.00 29 1015.7
20260509141546 18 261 3.2 8.0 0.00 0.00 0.00 29 1015.6
20260509141046 18 326 1.6 4.8 0.00 0.00 0.00 30 1015.6
20260509140545 18 42 1.6 3.2 0.00 0.00 0.00 29 1015.6
20260509140054 18 42 1.6 3.2 0.00 0.00 0.00 29 1015.5
20260509135544 17 42 0.0 6.4 0.00 0.00 0.00 29 1015.5
20260509135045 17 42 0.0 6.4 0.00 0.00 0.00 32 1015.6
20260509134544 16 42 0.0 1.6 0.00 0.00 0.00 31 1015.5
20260509134044 16 42 0.0 3.2 0.00 0.00 0.00 31 1015.5
20260509133543 16 42 0.0 3.2 0.00 0.00 0.00 33 1015.5
20260509133043 15 42 0.0 6.4 0.00 0.00 0.00 33 1015.5
20260509132545 15 42 1.6 6.4 0.00 0.00 0.00 33 1015.5
20260509132043 15 69 0.0 6.4 0.00 0.00 0.00 33 1015.6
20260509131541 14 73 1.6 6.4 0.00 0.00 0.00 34 1015.5
20260509131040 14 74 1.6 11.3 0.00 0.00 0.00 35 1015.4
20260509130540 14 60 3.2 8.0 0.00 0.00 0.00 36 1015.3
20260509130039 13 69 4.8 8.0 0.00 0.00 0.00 35 1015.3
20260509125538 14 63 1.6 6.4 0.00 0.00 0.00 35 1015.3
20260509125038 14 43 1.6 6.4 0.00 0.00 0.00 34 1015.3
20260509124537 14 360 0.0 8.0 0.00 0.00 0.00 34 1015.1
20260509124036 14 347 1.6 9.7 0.00 0.00 0.00 32 1015.2
20260509123539 14 347 4.8 9.7 0.00 0.00 0.00 33 1015.1
20260509123035 14 321 0.0 8.0 0.00 0.00 0.00 35 1014.9
20260509122533 13 42 0.0 4.8 0.00 0.00 0.00 35 1014.8
20260509122033 14 43 0.0 6.4 0.00 0.00 0.00 32 1014.7
20260509121537 14 64 1.6 4.8 0.00 0.00 0.00 33 1014.6
20260509121031 13 64 1.6 3.2 0.00 0.00 0.00 33 1014.4
20260509120531 13 64 0.0 1.6 0.00 0.00 0.00 34 1014.4
20260509120030 13 64 0.0 1.6 0.00 0.00 0.00 35 1014.3
20260509115528 14 64 0.0 1.6 0.00 0.00 0.00 35 1014.3
20260509115027 14 64 0.0 6.4 0.00 0.00 0.00 34 1014.3
20260509114527 14 64 1.6 6.4 0.00 0.00 0.00 33 1014.3
20260509114026 15 90 0.0 6.4 0.00 0.00 0.00 33 1014.1
20260509113525 15 90 0.0 6.4 0.00 0.00 0.00 31 1014.2
20260509113024 15 94 1.6 4.8 0.00 0.00 0.00 32 1014.0
20260509112524 14 94 1.6 3.2 0.00 0.00 0.00 33 1014.0
20260509112023 15 94 0.0 6.4 0.00 0.00 0.00 31 1013.9
20260509111523 15 94 0.0 6.4 0.00 0.00 0.00 29 1013.9
20260509111022 15 130 0.0 3.2 0.00 0.00 0.00 30 1013.9
20260509110522 15 130 0.0 3.2 0.00 0.00 0.00 30 1013.8
20260509110021 15 130 1.6 3.2 0.00 0.00 0.00 29 1013.9
20260509105523 15 130 0.0 3.2 0.00 0.00 0.00 29 1013.7
20260509105024 15 130 0.0 3.2 0.00 0.00 0.00 28 1013.7
20260509104533 15 130 0.0 3.2 0.00 0.00 0.00 29 1013.7
20260509104020 15 130 0.0 3.2 0.00 0.00 0.00 29 1013.7
20260509103519 16 130 0.0 3.2 0.00 0.00 0.00 28 1013.7
20260509103019 16 130 0.0 3.2 0.00 0.00 0.00 27 1013.7
20260509102519 16 130 0.0 3.2 0.00 0.00 0.00 27 1013.6
20260509102019 16 130 0.0 3.2 0.00 0.00 0.00 28 1013.6
20260509101519 16 130 0.0 3.2 0.00 0.00 0.00 27 1013.6
20260509101021 16 130 0.0 1.6 0.00 0.00 0.00 26 1013.5
20260509100517 16 130 0.0 3.2 0.00 0.00 0.00 28 1013.6
20260509100017 16 130 0.0 6.4 0.00 0.00 0.00 26 1013.5
20260509095516 16 130 1.6 6.4 0.00 0.00 0.00 27 1013.5
20260509095015 16 130 0.0 3.2 0.00 0.00 0.00 26 1013.6
20260509094515 16 130 1.6 3.2 0.00 0.00 0.00 25 1013.5
20260509094014 16 130 0.0 1.6 0.00 0.00 0.00 28 1013.5
20260509093517 16 130 0.0 3.2 0.00 0.00 0.00 27 1013.5
20260509093013 16 130 0.0 3.2 0.00 0.00 0.00 27 1013.5
20260509092513 16 130 0.0 1.6 0.00 0.00 0.00 27 1013.4
20260509092013 16 130 0.0 1.6 0.00 0.00 0.00 27 1013.4
20260509091512 17 130 0.0 0.0 0.00 0.00 0.00 26 1013.5
20260509091013 17 130 0.0 1.6 0.00 0.00 0.00 25 1013.5
20260509090511 17 130 0.0 3.2 0.00 0.00 0.00 24 1013.4
20260509090012 18 130 0.0 9.7 0.00 0.00 0.00 22 1013.5
20260509085513 18 130 1.6 9.7 0.00 0.00 0.00 22 1013.4
20260509085010 17 142 0.0 6.4 0.00 0.00 0.00 26 1013.4
20260509084521 17 142 0.0 6.4 0.00 0.00 0.00 26 1013.4
20260509084009 17 223 0.0 3.2 0.00 0.00 0.00 25 1013.5
20260509083508 17 223 0.0 3.2 0.00 0.00 0.00 26 1013.5
20260509083009 17 223 1.6 3.2 0.00 0.00 0.00 26 1013.4
20260509082509 17 223 0.0 3.2 0.00 0.00 0.00 26 1013.4
20260509082009 17 225 0.0 3.2 0.00 0.00 0.00 26 1013.4
20260509081507 18 225 0.0 3.2 0.00 0.00 0.00 25 1013.5
20260509081011 18 225 0.0 3.2 0.00 0.00 0.00 24 1013.5
20260509080509 18 225 0.0 3.2 0.00 0.00 0.00 25 1013.5
20260509080019 17 225 0.0 6.4 0.00 0.00 0.00 26 1013.5
20260509075505 18 225 3.2 8.0 0.00 0.00 0.00 27 1013.5
20260509075004 18 225 0.0 8.0 0.00 0.00 0.00 26 1013.6
20260509074505 18 96 0.0 6.4 0.00 0.00 0.00 24 1013.6
20260509074004 18 44 0.0 6.4 0.00 0.00 0.00 25 1013.6
20260509073503 18 44 0.0 4.8 0.00 0.00 0.00 24 1013.6
20260509073004 18 44 0.0 3.2 0.00 0.00 0.00 23 1013.5
20260509072504 18 44 0.0 3.2 0.00 0.00 0.00 22 1013.6
20260509072003 18 44 0.0 3.2 0.00 0.00 0.00 23 1013.6
20260509071503 18 44 0.0 3.2 0.00 0.00 0.00 24 1013.7
20260509071004 18 44 0.0 1.6 0.00 0.00 0.00 26 1013.7
20260509070503 18 44 0.0 1.6 0.00 0.00 0.00 25 1013.7
20260509070001 18 44 0.0 3.2 0.00 0.00 0.00 26 1013.7
20260509065500 18 44 0.0 3.2 0.00 0.00 0.00 26 1013.6
20260509065100 18 44 0.0 1.6 0.00 0.00 0.00 26 1013.7
20260509064617 18 44 0.0 1.6 0.00 0.00 0.00 25 1013.7
20260509064100 18 44 0.0 0.0 0.00 0.00 0.00 26 1013.6
20260509063558 18 44 0.0 3.2 0.00 0.00 0.00 25 1013.6
20260509063100 18 44 0.0 3.2 0.00 0.00 0.00 24 1013.6
20260509062557 18 44 0.0 1.6 0.00 0.00 0.00 24 1013.6
20260509062057 19 44 0.0 3.2 0.00 0.00 0.00 21 1013.7
20260509061556 19 44 0.0 3.2 0.00 0.00 0.00 23 1013.7
20260509061053 19 44 0.0 1.6 0.00 0.00 0.00 23 1013.7
20260509060552 19 44 0.0 3.2 0.00 0.00 0.00 22 1013.7
20260509060051 19 44 0.0 3.2 0.00 0.00 0.00 22 1013.8
20260509055551 19 44 0.0 3.2 0.00 0.00 0.00 21 1013.8
20260509055054 19 44 0.0 3.2 0.00 0.00 0.00 22 1013.8
20260509054553 20 44 0.0 3.2 0.00 0.00 0.00 21 1013.8
20260509054052 20 44 0.0 3.2 0.00 0.00 0.00 20 1013.9
20260509053551 19 44 0.0 6.4 0.00 0.00 0.00 22 1013.8
20260509053052 19 44 1.6 6.4 0.00 0.00 0.00 22 1013.9
20260509052550 19 44 1.6 3.2 0.00 0.00 0.00 22 1014.0
20260509052049 20 44 0.0 3.2 0.00 0.00 0.00 22 1014.0
20260509051558 20 44 0.0 3.2 0.00 0.00 0.00 22 1014.0
20260509051049 20 44 1.6 6.4 0.00 0.00 0.00 21 1014.1
20260509050549 20 44 0.0 6.4 0.00 0.00 0.00 20 1014.1
20260509050049 20 46 3.2 4.8 0.00 0.00 0.00 20 1014.1
20260509045548 20 136 0.0 3.2 0.00 0.00 0.00 21 1014.1
20260509045048 20 136 0.0 3.2 0.00 0.00 0.00 21 1014.2
20260509044549 20 136 0.0 3.2 0.00 0.00 0.00 22 1014.1
20260509044047 20 136 0.0 3.2 0.00 0.00 0.00 21 1014.1
20260509043548 20 136 0.0 3.2 0.00 0.00 0.00 21 1014.1
20260509043048 20 136 0.0 3.2 0.00 0.00 0.00 22 1014.1
20260509042550 20 136 0.0 3.2 0.00 0.00 0.00 23 1014.0
20260509042048 20 136 0.0 3.2 0.00 0.00 0.00 24 1014.0
20260509041548 20 140 0.0 1.6 0.00 0.00 0.00 25 1013.9
20260509041047 20 140 0.0 1.6 0.00 0.00 0.00 24 1013.9
20260509040550 20 140 0.0 1.6 0.00 0.00 0.00 25 1013.8
20260509040046 20 140 0.0 1.6 0.00 0.00 0.00 24 1013.7
20260509035546 21 140 0.0 0.0 0.00 0.00 0.00 24 1013.7
20260509035046 21 140 0.0 0.0 0.00 0.00 0.00 22 1013.7
20260509034548 21 140 0.0 0.0 0.00 0.00 0.00 22 1013.6
20260509034045 21 140 0.0 0.0 0.00 0.00 0.00 22 1013.5
20260509033545 21 140 0.0 6.4 0.00 0.00 0.00 22 1013.4
20260509033045 21 140 0.0 6.4 0.00 0.00 0.00 22 1013.3
20260509032545 22 43 0.0 3.2 0.00 0.00 0.00 20 1013.2
20260509032042 22 43 0.0 1.6 0.00 0.00 0.00 20 1013.1
20260509031541 22 43 0.0 1.6 0.00 0.00 0.00 19 1013.0
20260509031040 22 43 0.0 1.6 0.00 0.00 0.00 19 1012.9
20260509030540 22 43 0.0 1.6 0.00 0.00 0.00 19 1012.8
20260509030040 22 43 0.0 3.2 0.00 0.00 0.00 18 1012.8
20260509025540 22 43 0.0 3.2 0.00 0.00 0.00 19 1012.8
20260509025043 23 43 0.0 6.4 0.00 0.00 0.00 18 1012.7
20260509024539 23 26 1.6 3.2 0.00 0.00 0.00 19 1012.6
20260509024039 23 26 0.0 3.2 0.00 0.00 0.00 17 1012.5
20260509023541 24 26 0.0 3.2 0.00 0.00 0.00 17 1012.4
20260509023041 24 26 0.0 1.6 0.00 0.00 0.00 17 1012.4
20260509022541 24 26 0.0 3.2 0.00 0.00 0.00 17 1012.4
20260509022039 25 26 0.0 3.2 0.00 0.00 0.00 15 1012.3
20260509021539 25 26 0.0 3.2 0.00 0.00 0.00 15 1012.2
20260509021039 25 26 0.0 3.2 0.00 0.00 0.00 14 1012.2
20260509020538 25 13 0.0 1.6 0.00 0.00 0.00 15 1012.2
20260509020039 26 13 0.0 1.6 0.00 0.00 0.00 14 1012.2
20260509015539 26 13 0.0 6.4 0.00 0.00 0.00 13 1012.1
20260509015037 27 13 0.0 6.4 0.00 0.00 0.00 12 1012.0
20260509014544 27 13 0.0 3.2 0.00 0.00 0.00 11 1012.0
20260509014037 28 13 1.6 8.0 0.00 0.00 0.00 10 1011.9
20260509013537 28 20 3.2 11.3 0.00 0.00 0.00 10 1011.9
20260509013043 28 23 1.6 11.3 0.00 0.00 0.00 10 1011.9
20260509012537 28 21 6.4 9.7 0.00 0.00 0.00 9 1011.9
20260509012036 28 26 3.2 9.7 0.00 0.00 0.00 10 1011.9
20260509011541 28 16 3.2 12.9 0.00 0.00 0.00 9 1011.8
20260509011036 29 39 6.4 14.5 0.00 0.00 0.00 9 1011.9
20260509010538 29 33 4.8 14.5 0.00 0.00 0.00 9 1011.9
20260509010036 29 346 4.8 16.1 0.00 0.00 0.00 9 1011.9
20260509005536 29 61 4.8 16.1 0.00 0.00 0.00 9 1011.9
20260509005036 30 18 6.4 14.5 0.00 0.00 0.00 9 1011.8
20260509004535 30 18 6.4 17.7 0.00 0.00 0.00 9 1011.9
20260509004035 30 40 6.4 17.7 0.00 0.00 0.00 9 1011.9
20260509003535 30 343 9.7 16.1 0.00 0.00 0.00 8 1011.9
20260509003036 30 7 4.8 16.1 0.00 0.00 0.00 9 1011.9
20260509002534 30 355 4.8 20.9 0.00 0.00 0.00 9 1011.9
20260509002034 30 350 9.7 24.1 0.00 0.00 0.00 9 1011.9
20260509001536 30 1 11.3 24.1 0.00 0.00 0.00 9 1011.9
20260509001034 30 313 9.7 19.3 0.00 0.00 0.00 9 1011.9
20260509000533 30 344 9.7 22.5 0.00 0.00 0.00 9 1011.9
20260509000033 30 353 4.8 19.3 0.00 0.00 0.00 9 1011.9
20260508235534 31 352 9.7 20.9 0.00 0.00 0.00 9 1012.0
20260508235033 31 339 11.3 20.9 0.00 0.00 0.00 9 1012.0
20260508234535 30 20 8.0 17.7 0.00 0.00 0.00 8 1012.0
20260508234034 30 352 3.2 12.9 0.00 0.00 0.00 9 1012.0
20260508233532 30 17 3.2 12.9 0.00 0.00 0.00 9 1012.0
20260508233042 30 357 1.6 9.7 0.00 0.00 0.00 9 1012.0
20260508232530 31 359 4.8 9.7 0.00 0.00 0.00 9 1012.1
20260508232031 31 7 3.2 12.9 0.00 0.00 0.00 9 1012.1
20260508231536 30 346 4.8 17.7 0.00 0.00 0.00 9 1012.2
20260508231031 31 17 11.3 17.7 0.00 0.00 0.00 9 1012.2
20260508230530 31 83 1.6 19.3 0.00 0.00 0.00 9 1012.1
20260508230030 31 34 9.7 19.3 0.00 0.00 0.00 9 1012.1
20260508225529 31 59 6.4 17.7 0.00 0.00 0.00 10 1012.0
20260508225030 31 13 1.6 16.1 0.00 0.00 0.00 10 1012.1
20260508224530 31 1 6.4 20.9 0.00 0.00 0.00 9 1012.2
20260508224028 31 333 8.0 20.9 0.00 0.00 0.00 10 1012.2
20260508223528 30 359 4.8 19.3 0.00 0.00 0.00 9 1012.1
20260508223028 31 294 8.0 20.9 0.00 0.00 0.00 9 1012.3
20260508222528 31 281 8.0 22.5 0.00 0.00 0.00 9 1012.3
20260508222028 31 26 11.3 22.5 0.00 0.00 0.00 9 1012.3
20260508221527 31 313 9.7 20.9 0.00 0.00 0.00 10 1012.3
20260508221029 31 298 6.4 22.5 0.00 0.00 0.00 10 1012.4
20260508220528 31 4 6.4 22.5 0.00 0.00 0.00 10 1012.4
20260508220025 31 281 8.0 17.7 0.00 0.00 0.00 10 1012.4
20260508215525 30 250 6.4 9.7 0.00 0.00 0.00 9 1012.5
20260508215025 30 321 3.2 14.5 0.00 0.00 0.00 11 1012.5
20260508214527 30 169 3.2 14.5 0.00 0.00 0.00 10 1012.5
20260508214024 31 309 3.2 8.0 0.00 0.00 0.00 10 1012.6
20260508213523 30 293 1.6 8.0 0.00 0.00 0.00 9 1012.7
20260508213021 31 319 3.2 16.1 0.00 0.00 0.00 9 1012.8
20260508212521 31 40 6.4 17.7 0.00 0.00 0.00 10 1012.8
20260508212020 31 347 9.7 17.7 0.00 0.00 0.00 9 1012.8
20260508211528 30 9 8.0 17.7 0.00 0.00 0.00 10 1012.9
20260508211023 30 281 8.0 19.3 0.00 0.00 0.00 10 1012.9
20260508210519 30 276 4.8 19.3 0.00 0.00 0.00 9 1013.0
20260508210017 31 309 11.3 17.7 0.00 0.00 0.00 9 1013.1
20260508205516 30 262 1.6 8.0 0.00 0.00 0.00 9 1013.1
20260508205019 30 313 3.2 9.7 0.00 0.00 0.00 9 1013.1
20260508204517 31 111 3.2 14.5 0.00 0.00 0.00 9 1013.1
20260508204015 31 123 4.8 14.5 0.00 0.00 0.00 10 1013.2
20260508203515 31 33 1.6 19.3 0.00 0.00 0.00 9 1013.3
20260508203015 32 99 9.7 19.3 0.00 0.00 0.00 9 1013.3
20260508202514 31 77 3.2 14.5 0.00 0.00 0.00 10 1013.3
20260508202013 31 47 4.8 12.9 0.00 0.00 0.00 10 1013.4
20260508201512 30 26 4.8 12.9 0.00 0.00 0.00 9 1013.4
20260508201011 30 309 6.4 12.9 0.00 0.00 0.00 9 1013.5
20260508200510 30 212 6.4 12.9 0.00 0.00 0.00 10 1013.5
20260508200012 29 131 3.2 14.5 0.00 0.00 0.00 9 1013.5
20260508195509 30 314 6.4 14.5 0.00 0.00 0.00 9 1013.6
20260508195008 30 351 4.8 14.5 0.00 0.00 0.00 10 1013.7
20260508194513 30 290 6.4 14.5 0.00 0.00 0.00 10 1013.7
20260508194007 30 1 6.4 16.1 0.00 0.00 0.00 10 1013.7
20260508193507 30 11 8.0 16.1 0.00 0.00 0.00 10 1013.8
20260508193009 30 317 4.8 11.3 0.00 0.00 0.00 10 1013.9
20260508192506 29 348 3.2 17.7 0.00 0.00 0.00 10 1013.9
20260508192005 30 348 8.0 17.7 0.00 0.00 0.00 10 1014.0
20260508191506 30 11 4.8 14.5 0.00 0.00 0.00 11 1014.0
20260508191003 30 23 3.2 16.1 0.00 0.00 0.00 10 1014.0
20260508190503 29 313 8.0 16.1 0.00 0.00 0.00 12 1014.1
20260508190002 29 1 4.8 11.3 0.00 0.00 0.00 11 1014.2
20260508185600 29 7 4.8 14.5 0.00 0.00 0.00 13 1014.1
20260508185100 30 65 1.6 14.5 0.00 0.00 0.00 12 1014.2
20260508184558 30 89 8.0 14.5 0.00 0.00 0.00 13 1014.3
20260508184100 30 84 3.2 11.3 0.00 0.00 0.00 14 1014.3
20260508183555 28 14 4.8 11.3 0.00 0.00 0.00 14 1014.4
20260508183055 28 322 1.6 12.9 0.00 0.00 0.00 15 1014.4
20260508182555 28 11 8.0 16.1 0.00 0.00 0.00 15 1014.6
20260508182054 28 36 8.0 16.1 0.00 0.00 0.00 14 1014.6
20260508181556 28 13 4.8 11.3 0.00 0.00 0.00 16 1014.7
20260508181055 28 67 1.6 11.3 0.00 0.00 0.00 16 1014.7
20260508180551 27 22 1.6 12.9 0.00 0.00 0.00 16 1014.8
20260508180050 28 336 4.8 14.5 0.00 0.00 0.00 14 1014.9
20260508175547 27 9 4.8 16.1 0.00 0.00 0.00 15 1014.9
20260508175047 27 13 4.8 16.1 0.00 0.00 0.00 15 1014.9
20260508174555 27 15 1.6 9.7 0.00 0.00 0.00 15 1015.0
20260508174045 27 334 6.4 9.7 0.00 0.00 0.00 15 1015.0
20260508173544 27 28 1.6 9.7 0.00 0.00 0.00 13 1015.1
20260508173046 27 59 3.2 9.7 0.00 0.00 0.00 16 1015.1
20260508172541 27 6 1.6 12.9 0.00 0.00 0.00 15 1015.1
20260508172040 26 2 4.8 12.9 0.00 0.00 0.00 17 1015.2
20260508171538 26 357 4.8 11.3 0.00 0.00 0.00 16 1015.3
20260508171036 25 3 4.8 12.9 0.00 0.00 0.00 18 1015.3
20260508170536 25 15 4.8 12.9 0.00 0.00 0.00 17 1015.4
20260508170039 25 351 3.2 11.3 0.00 0.00 0.00 20 1015.4
20260508165532 25 332 6.4 11.3 0.00 0.00 0.00 19 1015.5
20260508165031 24 267 0.0 9.7 0.00 0.00 0.00 21 1015.5
20260508164529 24 276 1.6 11.3 0.00 0.00 0.00 22 1015.5
20260508164029 24 281 6.4 11.3 0.00 0.00 0.00 21 1015.5
20260508163527 23 360 6.4 11.3 0.00 0.00 0.00 22 1015.5
20260508163027 23 309 6.4 14.5 0.00 0.00 0.00 23 1015.5
20260508162524 23 252 6.4 14.5 0.00 0.00 0.00 24 1015.6
20260508162023 23 309 3.2 11.3 0.00 0.00 0.00 23 1015.6
20260508161521 22 305 4.8 11.3 0.00 0.00 0.00 24 1015.6
20260508161020 22 296 1.6 9.7 0.00 0.00 0.00 24 1015.6
20260508160518 22 342 4.8 9.7 0.00 0.00 0.00 24 1015.7
20260508160018 22 286 1.6 9.7 0.00 0.00 0.00 26 1015.7
20260508155515 22 271 3.2 8.0 0.00 0.00 0.00 25 1015.7
20260508155014 21 307 0.0 8.0 0.00 0.00 0.00 25 1015.6
20260508154513 21 317 3.2 9.7 0.00 0.00 0.00 25 1015.7
20260508154011 21 341 3.2 9.7 0.00 0.00 0.00 26 1015.7
20260508153511 21 19 1.6 8.0 0.00 0.00 0.00 25 1015.7
20260508153011 20 359 3.2 9.7 0.00 0.00 0.00 26 1015.7
20260508152507 20 359 4.8 9.7 0.00 0.00 0.00 26 1015.7
20260508152007 20 2 4.8 9.7 0.00 0.00 0.00 27 1015.8
20260508151504 20 21 4.8 8.0 0.00 0.00 0.00 26 1015.8
20260508151004 19 1 1.6 9.7 0.00 0.00 0.00 26 1015.8
20260508150504 19 358 6.4 9.7 0.00 0.00 0.00 26 1015.8
20260508150100 19 315 4.8 9.7 0.00 0.00 0.00 26 1015.8
20260508145603 18 348 3.2 9.7 0.00 0.00 0.00 28 1015.8